Tracking 29892 objects as of 21-Nov-2024
HD Live streaming from Space Station
objects crossing your sky now

STARLINK-5489

Track STARLINK-5489 now!
10-day predictions
STARLINK-5489 is classified as:


NORAD ID: 56136
Int'l Code: 2023-046AW
Perigee: 565.4 km
Apogee: 567.0 km
Inclination: 43.0 °
Period: 95.8 minutes
Semi major axis: 6937 km
RCS: Unknown
Launch date: March 29, 2023
Source: United States (US)
Launch site: AIR FORCE EASTERN TEST RANGE (AFETR)
Your satellite tracking list
Your tracking list is empty




NASA's NSSDC Master Catalog

Two Line Element Set (TLE):
1 56136U 23046AW  24325.98142107  .00000647  00000-0  62967-4 0  9995
2 56136  43.0035 199.9935 0001154 283.4766  76.5947 15.02540852 91493
Source of the keplerian elements: AFSPC